#timestamp,LO_Frequency,Hit 
1616320815.5,286046997.9,N
1616320835.3,286046996.2,P
1616320855.1,286046997.2,P
1616320875.9,286046996.9,P
1616320895.7,286046996.8,P
1616320915.6,286046999.7,N
1616320935.4,286046998.1,N
1616320955.2,286046999.7,N
1616320975.0,286047000.4,N
1616320976.0,286047000.4,N
1616320995.8,286047000.3,N
1616321015.6,286046999.4,N
1616321035.4,286047001.1,N
1616321055.3,286046998.7,N
1616321075.1,286046998.2,N
1616321095.8,286046996.9,N
1616321115.7,286046998.2,N
1616321135.5,286046998.7,N
1616321155.3,286046996.7,N
1616321175.2,286046999.5,N
1616321195.0,286046996.6,N
1616321195.9,286046996.6,N
1616321215.7,286046996.8,N
1616321235.6,286046997.4,N
1616321255.4,286046999.6,N
1616321275.2,286046997.4,N
1616321295.1,286046997.5,N
1616321296.0,286046997.5,N
1616321315.8,286046997.7,N
1616321335.6,286046997.8,N
1616321355.5,286046994.9,P
1616321375.3,286046999.6,N
1616321395.1,286046997.4,N
1616321415.9,286046996.9,N
1616321435.7,286046999.0,N
1616321455.5,286046999.0,N
1616321475.4,286046999.2,N
1616321495.2,286046997.0,N
1616321515.0,286046997.6,N
1616321515.9,286046997.6,N
1616321535.8,286046997.1,N
1616321555.6,286046996.6,N
1616321575.4,286046996.6,N
1616321595.3,286046997.4,N
1616321615.1,286046996.5,N
1616321616.0,286046996.5,N
1616321635.8,286046996.6,N
1616321655.7,286046996.5,P
1616321675.5,286046998.9,N
1616321695.3,286046998.7,N
1616321715.2,286046998.6,N
1616321735.9,286046999.1,N
1616321755.7,286046999.4,N
1616321775.6,286046999.2,N
1616321795.4,286046999.6,N
1616321815.2,286046998.7,N
1616321835.1,286046998.9,N
1616321836.0,286046998.9,N
1616321855.8,286046997.1,P
1616321875.6,286047000.9,N
1616321895.5,286047000.4,N
1616321915.3,286047000.8,N
1616321935.1,286046999.3,N
1616321955.9,286046998.3,N
1616321975.7,286047000.8,N
1616321995.5,286046998.8,N
1616322015.4,286047001.1,N
1616322035.2,286046998.3,N
1616322055.0,286046998.9,N
1616322055.9,286046998.9,N
1616322075.8,286046996.8,N
1616322095.6,286046999.6,N
1616322115.4,286046996.8,N
1616322135.3,286046998.8,N
1616322155.1,286046997.0,N
1616322156.0,286046997.0,N
1616322175.8,286046996.9,N
1616322195.7,286046997.9,N
1616322215.5,286046995.0,P
1616322235.3,286046996.5,N
1616322255.2,286046998.7,N
1616322275.9,286046998.7,N
1616322295.7,286046997.4,N
1616322315.6,286046999.3,N
1616322335.4,286046996.8,N
1616322355.2,286046999.1,N
1616322375.1,286046994.9,P
1616322376.0,286046994.9,P
1616322395.8,286046998.1,N
1616322415.6,286046998.4,N
1616322435.5,286046998.3,N
1616322455.3,286046998.3,N
1616322475.1,286047001.2,N
1616322495.9,286046998.8,N
1616322515.7,286046999.2,N
1616322535.5,286046999.1,N
1616322555.4,286046996.6,N
1616322575.2,286046999.3,N
1616322595.0,286046999.2,N
1616322595.9,286046999.2,N
1616322615.8,286046999.6,N
1616322635.6,286046996.8,N
1616322655.4,286046999.4,N
1616322675.3,286046997.0,N
1616322695.1,286046998.0,N
1616322696.0,286046998.0,N
1616322715.8,286046997.7,N
1616322735.7,286046995.4,P
1616322755.5,286046996.6,N
1616322775.3,286046998.8,N
1616322795.2,286046996.9,N
1616322815.9,286046996.6,N
1616322835.7,286046996.7,N
1616322855.6,286046996.5,P
1616322875.4,286046998.2,P
1616322895.2,286046999.8,N
1616322915.1,286047000.6,N
1616322916.0,286047000.6,N
1616322935.8,286046998.3,N
1616322955.6,286047001.0,N
1616322975.5,286047000.4,N
1616322995.3,286046998.7,N
1616323015.1,286047000.7,N
1616323035.9,286046998.8,N
1616323055.7,286046998.9,N
1616323075.5,286046998.7,N
1616323095.4,286046997.0,N
1616323115.2,286046996.5,N
1616323135.0,286046999.6,N
1616323135.9,286046999.6,N
1616323155.8,286046997.0,N
1616323175.6,286046996.7,N
1616323195.4,286046996.5,N
1616323215.2,286046999.1,N
1616323235.1,286046995.1,P
1616323236.0,286046995.1,N
1616323255.8,286046996.7,N
1616323275.7,286046997.0,N
1616323295.5,286046999.4,N
1616323315.3,286046997.7,N
1616323335.2,286046996.9,N
1616323355.9,286046997.5,N
1616323375.7,286046997.7,N
1616323395.6,286046997.6,N
1616323415.4,286046996.8,N
1616323435.2,286046997.8,N
1616323455.0,286046998.0,N
1616323456.0,286046998.0,N
1616323475.8,286046995.1,P
1616323495.6,286046998.3,N
1616323515.5,286046999.1,N
1616323535.3,286046999.3,N
1616323555.1,286046999.0,N
1616323575.9,286046999.2,N
1616323595.7,286046997.3,N
1616323615.5,286046997.5,N
1616323635.4,286046997.9,N
1616323655.2,286046997.4,N
1616323675.0,286046997.2,N
1616323675.9,286046997.2,N
1616323695.8,286046997.1,N
1616323715.6,286046995.4,P
1616323735.4,286046999.0,N
1616323755.3,286046997.1,N
1616323775.1,286046997.0,N
1616323776.0,286046997.0,N
1616323795.8,286046996.7,P
1616323815.7,286047002.1,P
1616323835.5,286047000.3,N
1616323855.3,286047002.3,N
1616323875.2,286047002.5,N
1616323895.9,286047002.5,N
1616323915.7,286047001.3,N
1616323935.6,286047004.3,N
1616323955.4,286047004.1,N
1616323975.2,286047004.2,N
1616323995.1,286047003.8,N
1616323996.0,286047003.8,N
1616324015.8,286047003.6,N
1616324035.6,286047004.2,N
1616324055.5,286047003.0,N
1616324075.3,286047005.9,N
1616324095.1,286047003.0,N
1616324115.9,286047001.3,N
1616324135.7,286047005.9,N
1616324155.5,286047004.3,N
1616324175.4,286047002.9,N
1616324195.2,286047003.7,N
1616324215.0,286047004.0,N
1616324215.9,286047004.0,N
1616324235.8,286047001.8,N
1616324255.6,286047003.7,N
1616324275.4,286047001.9,N
1616324295.2,286047001.3,N
1616324315.1,286047001.7,N
1616324316.0,286047001.7,N
1616324335.8,286047004.4,N
1616324355.6,286047001.6,N
1616324375.5,286047001.5,N
1616324395.3,286047004.1,P
